Location: Taukkyan
(23.1052°N, 94.0030°E)
Time: 23:06:33
(UTC+00:00)

Cosmos 2058 Rocket - Pass Details

Date: 06 July 2020
Orbit: 610 x 639 km, 82.5° (Epoch: 05 August)

Event Time Altitude Azimuth Distance (km) Brightness Sun altitude
Rises 13:11:13 0° 6° (N) 2,930 6.8 -8.5°
Reaches altitude 10° 13:13:37 10° 15° (NNE) 2,016 5.9 -9.0°
Maximum altitude 13:17:44 36° 82° (E) 998 3.7 -9.8°
Enters shadow 13:21:42 11° 149° (SSE) 1,951 5.1 -10.6°
